[[{"header":{"parameterUnit":"m.s-1","parameterCategory":1,"la1":30.2991,"la2":30.254,"lo1":-89.0895,"lo2":-89.0444,"dy":0.0017,"dx":0.0017,"nx":28,"ny":28,"refTime":"2025-08-16T03:00:00:Z","depth":0,"parameterNumber":2,"parameterNumberName":"U-component_of_WINDS"},"data":[0,0,0,0,0,0,0,0,0,0,0,0,0,0,0,0,0,0,0,0,0,0,0,0,0,0,0,0,0,0,0,0,0,0,0,0,0,0,0,0,0,0,0,0,0,0,0,0,0,0,0,0,0,0,0,0,0,0,1.0629,1.063,0,1.0721,1.0722,1.0723,1.0726,1.0725,1.0724,1.0723,1.0817,1.0821,1.0824,0,0,0,0,0,0,0,0,0,0,0,0,0,1.0455,1.0458,1.0629,1.063,1.0631,1.0721,1.0722,1.0723,1.0727,1.0725,1.0724,1.0723,1.0816,1.082,1.0825,0,0,0,0,0,0,0,0,0,0,0,0,0,1.0537,1.046,1.0629,1.0644,1.0646,1.0721,1.0722,1.0724,1.0727,1.0725,1.0724,1.0722,1.0815,1.082,1.0825,1.0891,0,0,1.0841,1.0844,0,0,0,0,0,0,0,0,1.0533,1.0544,1.064,1.0643,1.0645,1.0711,1.0696,1.078,1.0727,1.0696,1.0723,1.0721,1.0783,1.0791,1.0812,1.0896,1.09,1.0842,1.0845,1.0847,1.0849,0,0,0,0,0,0,0,1.0527,1.054,1.0665,1.0642,1.0645,1.0646,1.0655,1.0712,1.0748,1.0699,1.0699,1.071,1.0784,1.0807,1.0814,1.0901,1.0842,1.0846,1.085,1.0852,1.1044,1.1046,0,0,0,0,0,0,1.0518,1.0535,1.0662,1.0668,1.0584,1.065,1.0661,1.0691,1.0747,1.0754,1.0711,1.071,1.0799,1.0808,1.0817,1.0899,1.0847,1.0852,1.0855,1.1042,1.1044,1.1047,0,0,0,0,0,0,1.0515,1.053,1.0659,1.0602,1.0618,1.0655,1.0689,1.0694,1.0716,1.0757,1.0763,1.0728,1.0798,1.081,1.0873,1.0902,1.0855,1.086,1.104,1.1043,1.1046,1.1061,0,0,0,0,0,0,1.051,1.0528,1.0554,1.0602,1.0621,1.0713,1.0691,1.0697,1.0726,1.0725,1.0774,1.078,1.0797,1.0865,1.0878,1.0908,1.0864,1.1037,1.1041,1.1045,1.1058,1.1064,1.1069,0,0,0,0,0,1.0504,1.0554,1.0555,1.057,1.0654,1.0714,1.0725,1.0743,1.0728,1.0754,1.078,1.0779,1.0897,1.0871,1.0886,1.0918,1.1036,1.104,1.1044,1.1056,1.1063,1.1069,0,0,0,0,0,0,1.0508,1.0561,1.0562,1.063,1.0668,1.0715,1.0748,1.0751,1.0793,1.079,1.0811,1.0822,1.0885,1.0908,1.0879,1.0986,1.0964,1.0972,1.0968,1.0975,1.0981,1.0974,1.0868,0,0,0,0,0,1.0517,1.0561,1.0605,1.0661,1.068,1.0711,1.0738,1.0749,1.0788,1.0804,1.0835,1.0873,1.0919,1.0948,1.0993,1.1062,1.1073,1.1091,1.1097,1.1101,1.1107,1.1146,1.1155,1.1061,1.1061,1.1061,0,0,1.0535,1.057,1.0597,1.0663,1.0693,1.0739,1.0724,1.0773,1.0807,1.0811,1.0873,1.0897,1.0941,1.1007,1.1038,1.1029,1.1136,1.1107,1.111,1.1114,1.1151,1.116,1.1168,1.1064,1.1063,1.1063,0,0,1.0593,1.0623,1.0674,1.0704,1.0751,1.0771,1.0783,1.083,1.0846,1.0908,1.0912,1.0953,1.1032,1.1063,1.1089,1.116,1.116,1.1174,1.1203,1.124,1.1247,1.1254,1.1279,1.1288,1.118,1.118,1.118,0,1.061,1.0679,1.0699,1.0748,1.0777,1.0784,1.0835,1.0864,1.0922,1.0942,1.093,1.1029,1.1059,1.1133,1.1151,1.1172,1.1186,1.1168,1.1245,1.1252,1.1258,1.1282,1.1291,1.1181,1.1181,1.1181,1.1181,0,1.0698,1.0747,1.0781,1.0838,1.0871,1.0921,1.0948,1.0979,1.0988,1.1009,1.1072,1.1109,1.1161,1.1179,1.1188,1.1255,1.1247,1.124,1.1219,1.1268,1.1291,1.13,1.1183,1.1182,1.1182,1.1182,0,0,1.076,1.0828,1.084,1.0866,1.0918,1.0956,1.1006,1.1057,1.1084,1.1124,1.1167,1.1233,1.1227,1.1257,1.1269,1.1302,1.1355,1.1291,1.1292,1.1301,1.1431,1.1436,1.1446,1.1356,1.1358,1.136,1.1427,0,1.0823,1.0913,1.0932,1.101,1.1055,1.1062,1.1106,1.1143,1.1164,1.1206,1.1229,1.1276,1.1264,1.1282,1.1315,1.1342,1.1381,1.1337,1.1396,1.1398,1.1384,1.1458,1.1463,1.1525,1.1436,1.1438,1.1439,0,1.0908,1.0951,1.1033,1.108,1.11,1.1139,1.1188,1.1227,1.1269,1.1282,1.1316,1.1325,1.1378,1.1355,1.1428,1.1397,1.1422,1.1439,1.1442,1.1447,1.1421,1.1466,1.1546,1.1555,1.1453,1.1452,1.1451,0,1.0944,1.1023,1.1082,1.1104,1.1161,1.1188,1.1213,1.1253,1.1283,1.1325,1.1345,1.1393,1.1419,1.1456,1.1478,1.1459,1.1549,1.1528,1.1562,1.1561,1.158,1.1578,1.1664,1.1597,1.1597,1.1597,1.1596,0,1.1012,1.1062,1.11,1.1136,1.1192,1.1214,1.1269,1.1294,1.133,1.1371,1.1381,1.1419,1.1446,1.1488,1.1505,1.1563,1.1575,1.1587,1.1591,1.1586,1.1584,1.1602,1.1598,1.1599,1.1598,1.1598,1.1598,0,1.1062,1.1089,1.1154,1.1203,1.1216,1.1256,1.1297,1.1332,1.1355,1.1407,1.142,1.1455,1.1505,1.1531,1.1594,1.1605,1.167,1.1672,1.1656,1.1657,1.1689,1.1686,1.179,1.1805,1.1728,1.1728,1.1729,0,1.1103,1.1142,1.1195,1.1224,1.1249,1.1295,1.1326,1.1349,1.1381,1.1432,1.1461,1.1512,1.1554,1.1634,1.1665,1.1713,1.1715,1.1749,1.1722,1.1716,1.1715,1.1712,1.1716,1.1753,1.1753,1.1754,1.1755,0,1.1173,1.1185,1.1229,1.1279,1.1315,1.1355,1.1394,1.1417,1.1446,1.1481,1.1533,1.1566,1.163,1.168,1.1731,1.1756,1.176,1.1763,1.1773,1.1768,1.1757,1.1763,1.1668,1.176,1.1759,1.1759,1.1759,1.1759,1.122,1.1255,1.1298,1.1347,1.1379,1.1416,1.1452,1.1479,1.1523,1.1577,1.1588,1.1643,1.1685,1.1753,1.178,1.1823,1.1816,1.183,1.1834,1.1837,1.1838,1.1751,1.1832,1.1832,1.1832,1.1832,1.1832,0,1.129,1.1318,1.1363,1.1418,1.1457,1.1459,1.1502,1.1534,1.1583,1.1621,1.1663,1.1722,1.1771,1.1806,1.1856,1.1884,1.1887,1.1896,1.1894,1.19,1.1842,1.1828,1.1893,1.1893,1.1893,1.1893,1.1893,1.1893,1.1331,1.139,1.1408,1.1483,1.1511,1.1565,1.159,1.1624,1.1655,1.1721,1.1762,1.1785,1.1822,1.1875,1.192,1.1929,1.1947,1.1956,1.1965,1.191,1.1904,1.1897,1.1884,1.1959,1.196,1.2018,1.2019,1.2019]},{"header":{"parameterUnit":"m.s-1","parameterCategory":1,"la1":30.2991,"la2":30.254,"lo1":-89.0895,"lo2":-89.0444,"dy":0.0017,"dx":0.0017,"nx":28,"ny":28,"refTime":"2025-08-16T03:00:00:Z","depth":0,"parameterNumber":3,"parameterNumberName":"V-component_of_WINDS"},"data":[0,0,0,0,0,0,0,0,0,0,0,0,0,0,0,0,0,0,0,0,0,0,0,0,0,0,0,0,0,0,0,0,0,0,0,0,0,0,0,0,0,0,0,0,0,0,0,0,0,0,0,0,0,0,0,0,0,0,0.8323,0.8326,0,0.86,0.8604,0.8607,0.8671,0.8669,0.8667,0.8665,0.8958,0.8968,0.8977,0,0,0,0,0,0,0,0,0,0,0,0,0,0.7852,0.7861,0.8323,0.8326,0.833,0.86,0.8604,0.8608,0.8671,0.8669,0.8666,0.8664,0.8955,0.8967,0.8978,0,0,0,0,0,0,0,0,0,0,0,0,0,0.8086,0.7863,0.8322,0.8394,0.8403,0.8599,0.8604,0.8609,0.8672,0.8669,0.8666,0.8663,0.8951,0.8965,0.898,0.9127,0,0,0.9024,0.903,0,0,0,0,0,0,0,0,0.8073,0.8103,0.838,0.8389,0.84,0.8598,0.8546,0.8783,0.8672,0.857,0.8665,0.8661,0.8841,0.8865,0.8923,0.9141,0.9154,0.9025,0.9034,0.904,0.9044,0,0,0,0,0,0,0,0.8057,0.8092,0.8433,0.8384,0.8396,0.8413,0.8443,0.8591,0.8719,0.8579,0.8584,0.8615,0.8846,0.8909,0.8931,0.9158,0.9025,0.9038,0.9046,0.9052,0.9503,0.9507,0,0,0,0,0,0,0.8027,0.8078,0.8424,0.8441,0.8225,0.8424,0.8458,0.8537,0.8717,0.8742,0.8617,0.8617,0.8886,0.8914,0.8941,0.9122,0.904,0.9053,0.9062,0.95,0.9504,0.9508,0,0,0,0,0,0,0.8017,0.8057,0.8413,0.8261,0.8308,0.8435,0.8524,0.8544,0.8607,0.8747,0.8771,0.8658,0.8885,0.8921,0.9078,0.9133,0.906,0.9073,0.9496,0.9501,0.9506,0.9487,0,0,0,0,0,0,0.8003,0.8053,0.811,0.8262,0.8315,0.8545,0.8528,0.8552,0.8631,0.8633,0.8791,0.8815,0.8885,0.9056,0.9093,0.9152,0.9084,0.9492,0.9498,0.9504,0.9483,0.949,0.9497,0,0,0,0,0,0.7986,0.8098,0.8113,0.8155,0.8389,0.8548,0.8579,0.8655,0.8635,0.8694,0.8782,0.881,0.912,0.9072,0.9113,0.9178,0.9489,0.9497,0.9504,0.948,0.9489,0.9496,0,0,0,0,0,0,0.7956,0.8119,0.8138,0.8302,0.8409,0.8558,0.8635,0.8663,0.8782,0.878,0.8872,0.8907,0.9058,0.9134,0.9077,0.9326,0.9304,0.932,0.9272,0.9281,0.9288,0.9267,0.9096,0,0,0,0,0,0.7966,0.8079,0.8217,0.8349,0.8401,0.8508,0.858,0.8628,0.8746,0.8793,0.8893,0.9007,0.913,0.921,0.9331,0.9493,0.9526,0.9557,0.9563,0.9568,0.9582,0.9668,0.9682,0.9532,0.9532,0.9532,0,0,0.7994,0.8097,0.8164,0.8345,0.8434,0.8549,0.8547,0.8671,0.8757,0.8813,0.8966,0.9042,0.9176,0.9334,0.9409,0.9402,0.9629,0.9578,0.9581,0.9592,0.9677,0.9691,0.9703,0.9537,0.9536,0.9536,0,0,0.8101,0.819,0.8307,0.8394,0.8526,0.8596,0.8623,0.8766,0.8817,0.897,0.9012,0.9117,0.9328,0.9419,0.9494,0.9624,0.9653,0.9661,0.9698,0.978,0.9792,0.9803,0.9847,0.9862,0.9674,0.9674,0.9674,0,0.8119,0.8292,0.8364,0.8483,0.856,0.8609,0.8727,0.881,0.8977,0.9029,0.9017,0.9277,0.9372,0.9549,0.9579,0.9639,0.9672,0.9646,0.9784,0.9796,0.9807,0.985,0.9866,0.9674,0.9674,0.9674,0.9674,0,0.8305,0.8423,0.8502,0.8655,0.8741,0.8859,0.8949,0.9028,0.9066,0.9135,0.9288,0.9401,0.9543,0.9588,0.9631,0.977,0.9761,0.9765,0.9745,0.982,0.9861,0.9879,0.9674,0.9674,0.9674,0.9674,0,0,0.8408,0.8592,0.862,0.8687,0.8832,0.8927,0.9045,0.9178,0.9242,0.9354,0.9454,0.9627,0.9629,0.9713,0.9764,0.9836,0.9928,0.9832,0.9836,0.9844,1.0084,1.008,1.0098,0.9946,0.9949,0.9952,1.0072,0,0.8531,0.8741,0.8806,0.8982,0.9091,0.9135,0.9237,0.9337,0.9403,0.9506,0.958,0.9699,0.9695,0.9745,0.9818,0.9901,0.9977,0.9893,1.0041,1.0045,1.0006,1.012,1.0118,1.0227,1.0089,1.0092,1.0094,0,0.8706,0.8813,0.8998,0.9122,0.9171,0.9262,0.9386,0.9483,0.9596,0.9639,0.9726,0.977,0.9894,0.9863,1.0034,0.9975,1.0038,1.0087,1.0093,1.0111,1.0075,1.014,1.0264,1.0279,1.0122,1.0119,1.0117,0,0.8759,0.895,0.9084,0.914,0.929,0.9352,0.9417,0.9527,0.96,0.9709,0.9757,0.9881,0.9948,1.0042,1.0116,1.0088,1.0279,1.0256,1.0317,1.0315,1.0358,1.0355,1.0492,1.0398,1.0398,1.0398,1.0397,0,0.8891,0.9002,0.9108,0.9191,0.9315,0.9387,0.9509,0.9577,0.9672,0.9768,0.9814,0.9904,0.9996,1.0098,1.0157,1.0286,1.0317,1.0355,1.0369,1.0351,1.0346,1.0395,1.039,1.0402,1.0401,1.04,1.04,0,0.8973,0.9049,0.9197,0.9323,0.9357,0.9442,0.9551,0.9632,0.9696,0.9817,0.9849,0.9952,1.0072,1.0154,1.0311,1.035,1.049,1.0504,1.0451,1.0458,1.0514,1.0507,1.0688,1.0715,1.0603,1.0604,1.0604,0,0.9053,0.9138,0.927,0.9335,0.9399,0.9505,0.9578,0.965,0.9725,0.9854,0.9919,1.0041,1.0143,1.0333,1.0422,1.054,1.0557,1.0612,1.0576,1.0552,1.0556,1.0549,1.0557,1.0618,1.0619,1.062,1.0621,0,0.9185,0.9216,0.9318,0.9431,0.9515,0.9609,0.9703,0.9754,0.9843,0.9924,1.0044,1.0123,1.0277,1.0397,1.0522,1.0591,1.062,1.063,1.065,1.0633,1.0598,1.0615,1.0465,1.0627,1.0626,1.0626,1.0625,1.0625,0.9269,0.9343,0.9445,0.9556,0.9632,0.9717,0.9797,0.9868,0.9969,1.0098,1.0134,1.0259,1.0363,1.0532,1.0602,1.07,1.0696,1.0726,1.0734,1.074,1.0738,1.058,1.0724,1.0724,1.0723,1.0723,1.0723,0,0.9401,0.9467,0.9567,0.9693,0.9778,0.9792,0.9895,0.9967,1.0075,1.0168,1.0264,1.04,1.0514,1.0608,1.0726,1.0786,1.0802,1.0815,1.0812,1.0826,1.0737,1.0707,1.0799,1.0799,1.0799,1.0799,1.0799,1.0799,0.9481,0.9607,0.9648,0.9811,0.9877,0.9996,1.0053,1.013,1.0204,1.0352,1.0445,1.0504,1.0596,1.072,1.0824,1.0849,1.089,1.0899,1.0926,1.0842,1.0833,1.0825,1.0797,1.0907,1.0907,1.1007,1.1008,1.1009]}]]